Résultats du Marathon de Toulouse Métropole

Liste de résultats 2018

Place Dossard Nom Catégorie Temps réel Photos Diplôme Détails
1601 12701 ROBACH Margotte CF 01:01:09
1602 10996 SALINGUE Aurelien SH 01:01:09
1603 10995 SALINGUE Cedric SH 01:01:09
1604 12221 MAFFRE Laetitia SF 01:01:11
1605 12370 CROS Sandra SF 01:01:12
1606 13074 LAFFONT Christine VF3 01:01:12
1607 12804 TANTOT Veronique VF2 01:01:14
1608 12308 JIMENEZ-BRUNET Elodie SF 01:01:15
1609 12083 DE GRAEVE Sylvie SF 01:01:16
1610 10711 RUFACH Jean-baptiste SH 01:01:17
1611 10728 ALEXANDROPOULOS Matthieu SH 01:01:17
1612 10589 TESSIER Jean - jacques VH1 01:01:18
1613 10593 AUSSERESSES Frédéric VH1 01:01:18
1614 12839 LAPORTE Justine SF 01:01:18
1615 10209 THOMAS Olivier VH1 01:01:18
1616 12879 DORDAIN Marianne EF 01:01:19
1617 13135 DE PINHO Najat SF 01:01:20
1618 12887 TERRADA Josiane VF4 01:01:20
1619 12704 GRIMA Emmanuelle SF 01:01:21
1620 11078 CIARDULLO Lucas SH 01:01:21
1621 12717 ZAMORA Morgane SF 01:01:21
1622 12813 COMBE Isabelle VF1 01:01:21
1623 12496 BENECH Lucie SF 01:01:21
1624 11592 RABOIS Jocelin SH 01:01:22
1625 12922 GAGNE Sophie VF1 01:01:22
1626 12352 LASSALLE Christine VF2 01:01:22
1627 12566 RANDLES Mary VF2 01:01:23
1628 10801 COGNY Jean-joseph VH2 01:01:23
1629 11150 COUACH Thomas SH 01:01:24
1630 12638 KUS Helene SF 01:01:24
1631 12359 PRADELLES Delphine VF1 01:01:25
1632 13108 SEGURA Ariane EF 01:01:26
1633 12805 MESSIANT Marine SF 01:01:28
1634 13141 EL MOUSSAOUI Naziha VF1 01:01:28
1635 10360 LECLERCQ Oliver VH1 01:01:28
1636 10410 DEDIEU Laurent VH1 01:01:29
1637 12191 DEDIEU Lalie CF 01:01:29
1638 12074 DILLENSCHNEIDER Marie VF1 01:01:29
1639 12798 ANDERHUEBER Elise EF 01:01:30
1640 12164 ROUSSY Adriana VF2 01:01:30
1641 12010 BELIN Alice SF 01:01:34
1642 12012 CARME Elodie SF 01:01:34
1643 12390 DEIDDA Mélanie SF 01:01:34
1644 10733 BOURDAIM Sofian SH 01:01:34
1645 10211 PRIETO Emmanuel VH1 01:01:34
1646 10590 COQUE Antoine SH 01:01:34
1647 12011 LAIDET Manon SF 01:01:34
1648 12537 BOURDAIM Djannat SF 01:01:35
1649 12657 GLEIZES Marie SF 01:01:35
1650 10867 GLEIZES Pierre SH 01:01:35
1651 11266 GUILHOT Yohann SH 01:01:36
1652 10734 DEFORET Thomas SH 01:01:37
1653 13160 CAZENAVE Sarah SF 01:01:37
1654 10217 BROUSSET Robin SH 01:01:38
1655 13070 LANGLADE Valérie VF1 01:01:38
1656 12686 MARTY Margaux EF 01:01:39
1657 12685 DE ANDRADE Lauréna EF 01:01:39
1658 10285 BAHEUX Vincent SH 01:01:40
1659 11322 DASTUGUE Arnaud SH 01:01:41
1660 12553 MELLET Hélèna SF 01:01:41
1661 12243 CAZAJOUS Claire SF 01:01:41
1662 10744 VERGOZ Antoine SH 01:01:41
1663 11046 LAGARDE Eric VH1 01:01:41
1664 10818 BEGUE Pierre SH 01:01:41
1665 12297 COURCHINOUX Elsa EF 01:01:41
1666 12207 RACZKA Coline EF 01:01:41
1667 10396 GANDRILLE Nicolas VH1 01:01:42
1668 12212 MACALOU Phily SF 01:01:42
1669 12829 BIBENS Sandra VF1 01:01:42
1670 12174 SAUVESTRE Coralie SF 01:01:43
1671 10397 MARINO David SH 01:01:43
1672 12341 VERDEJO Laetitia SF 01:01:44
1673 12595 PIERRE-FRANCOIS Julie SF 01:01:44
1674 12312 NEAU Mathilde SF 01:01:45
1675 10377 COLLOT François SH 01:01:46
1676 12119 MASSAT Régine VF2 01:01:46
1677 12201 BONSENS Roselyne VF1 01:01:49
1678 12200 BONSENS Léa CF 01:01:49
1679 11226 MUNDUTEGUY Dominique VH3 01:01:49
1680 12355 ROUET Perrine SF 01:01:50
1681 11227 TOUATI Hassan SH 01:01:50
1682 12354 ROUET Marie-christine VF2 01:01:50
1683 12501 LEROY Christelle VF1 01:01:52
1684 12671 CROSSON Nina SF 01:01:52
1685 12027 CALVEL Céline SF 01:01:53
1686 13182 ŠVECOVA Eva EF 01:01:55
1687 10687 DOMINGOS Gerard VH3 01:02:00
1688 12366 LESTEL Catherine VF1 01:02:00
1689 13179 UJOVA Darina EF 01:02:02
1690 12708 ALBERT Marie-noelle VF1 01:02:02
1691 12515 MAUDOUIT Celine SF 01:02:03
1692 12868 BOSMAN Danelle SF 01:02:05
1693 12076 LOGUT Martine VF2 01:02:05
1694 12621 MICHEL-MUSSET Stéphanie VF1 01:02:06
1695 11190 ASSIKAR Ayoub SH 01:02:06
1696 11546 SIGUIER Philippe VH1 01:02:06
1697 13061 TOUMAZET Morgane SF 01:02:06
1698 12620 ESTEVE Laetitia VF1 01:02:07
1699 11536 ROUDERGUES Romain EH 01:02:08
1700 12613 BARRIE Natacha SF 01:02:08
Organisé par

Nous contacter

Newsletter

Météo